Regional Weather Roundup
Issued by NWS

Home | Current Version | Previous Version | Text Only | Print | Product List | Glossary On
Versions: 1 2 3 4 5 6 7 8 9 10 11 12 13 14 15 16 17 18 19 20 21 22 23 24 25 26 27 28 29 30 31 32 33 34 35 36 37 38 39 40 41 42 43 44 45 46 47 48 49 50
000
ASUS45 KREV 230410
RWRNV
NEVADA REGIONAL WEATHER ROUNDUP
NATIONAL WEATHER SERVICE RENO NV
800 PM PST WED FEB 22 2017

NOTE: "FAIR" INDICATES FEW OR NO CLOUDS BELOW 12,000 FEET WITH NO
SIGNIFICANT WEATHER AND/OR OBSTRUCTIONS TO VISIBILITY.

NVZ001-003-004-230500-
WESTERN NEVADA

CITY           SKY/WX    TMP DP  RH WIND       PRES   REMARKS
RENO           MOCLDY    31  17  56 NW17      29.97F
CARSON CITY    MOCLDY    32  14  47 CALM      29.99F
MINDEN         MOCLDY    28  14  54 SE8       29.99S
PYRAMID LAKE     N/A     32 N/A N/A SW7         N/A
FALLON         PTCLDY    32  17  54 NW8       29.97S
LOVELOCK       PTCLDY    33  21  61 W10       29.96S
HAWTHORNE      CLOUDY    36   9  32 N13G20    29.95F
$$

NVZ002-CAZ072-073-230500-
NORTHERN AND CENTRAL SIERRA

CITY           SKY/WX    TMP DP  RH WIND       PRES   REMARKS
S. LAKE TAHOE  LGT SNOW  20  16  84 S8        29.95S FOG
TRUCKEE        MOCLDY    18  16  93 W3        29.97S
SQUAW VLY 8000   N/A     32  32 100 SW10        N/A
SUSANVILLE     PTCLDY   N/A N/A N/A SW6       29.99F
MAMMOTH LAKES  FLURRIES  19  12  73 W16       29.93S
BRIDGEPORT       N/A     16   5  62 CALM      29.90F
$$

NVZ030-031-036-230500-
NORTHERN NEVADA

CITY           SKY/WX    TMP DP  RH WIND       PRES   REMARKS
ELKO           CLOUDY    30  19  63 SW14      29.82F
WINNEMUCCA     NOT AVBL
WENDOVER       PTCLDY    34  14  44 W18       29.79F
$$

NVZ035-037-230500-
CENTRAL NEVADA

CITY           SKY/WX    TMP DP  RH WIND       PRES   REMARKS
ELY            PTCLDY    17   4  56 CALM      29.83F
EUREKA           N/A     26   6  42 W10       29.86F
$$

NVZ013-014-230500-
SOUTH CENTRAL NEVADA

CITY           SKY/WX    TMP DP  RH WIND       PRES   REMARKS
TONOPAH        CLOUDY    33   4  29 NW17      29.89S
$$

NVZ017-020-022-230500-
SOUTHERN NEVADA

CITY           SKY/WX    TMP DP  RH WIND       PRES   REMARKS
LAS VEGAS      PTCLDY    49  30  48 NW22G32   29.83R
N. LAS VEGAS   CLOUDY    47  33  58 NW36G46   29.83R
NELLIS AFB     MOCLDY    50  29  43 W36G51    29.82S
HENDERSON      MOCLDY    47  30  51 N21G26    29.86R
MERCURY        CLOUDY    42  31  64 E10       29.85F
$$



USA.gov is the U.S. government's official web portal to all federal, state and local government web resources and services.